{"data":{"norad_id":58655,"epoch":"2026-05-23T22:24:23.755392Z","epoch_age_seconds":177358,"freshness":"STALE","line1":"1 58655U 23207B   26143.93360828 -.00000066  00000+0  00000+0 0  9999","line2":"2 58655  55.7344  63.1076 0004046 313.4970  46.4649  1.86229715 16374","mean_motion":1.86229715,"eccentricity":0.0004046,"inclination_deg":55.7344,"raan_deg":63.1076,"arg_perigee_deg":313.497,"mean_anomaly_deg":46.4649,"bstar":0,"rev_number":1637,"period_min":773.23857795734,"perigee_km":21516.889037868,"apogee_km":21539.470829531,"semimajor_km":27906.3169337,"source":"CELESTRAK","updated_at":"2026-05-25T13:38:24.224727Z"}}